TimePDT,TemperatureF,Dew PointF,Humidity,Sea Level PressureIn,VisibilityMPH,Wind Direction,Wind SpeedMPH,Gust SpeedMPH,PrecipitationIn,Events,Conditions,WindDirDegrees,DateUTC
12:56 AM,46.9,34.0,61,29.92,10.0,Calm,Calm,-,N/A,,Clear,0,2012-10-08 07:56:00
1:56 AM,43.0,35.1,74,29.94,10.0,Calm,Calm,-,N/A,,Clear,0,2012-10-08 08:56:00
2:56 AM,43.0,35.1,74,29.94,10.0,Calm,Calm,-,N/A,,Clear,0,2012-10-08 09:56:00
3:56 AM,41.0,34.0,76,29.95,10.0,Calm,Calm,-,N/A,,Clear,0,2012-10-08 10:56:00
4:56 AM,37.9,33.1,83,29.95,10.0,SSE,5.8,-,N/A,,Clear,160,2012-10-08 11:56:00
5:56 AM,41.0,34.0,76,29.97,10.0,Calm,Calm,-,N/A,,Clear,0,2012-10-08 12:56:00
6:56 AM,39.9,35.1,83,29.98,10.0,South,3.5,-,N/A,,Clear,190,2012-10-08 13:56:00
7:56 AM,39.9,35.1,83,30.00,10.0,Calm,Calm,-,N/A,,Clear,0,2012-10-08 14:56:00
8:56 AM,48.0,37.9,68,30.01,10.0,Calm,Calm,-,N/A,,Clear,0,2012-10-08 15:56:00
9:24 AM,51.8,39.2,62,30.00,10.0,South,6.9,-,N/A,,Clear,190,2012-10-08 16:24:00
9:56 AM,54.0,39.9,59,30.00,10.0,SSE,3.5,-,N/A,,Clear,150,2012-10-08 16:56:00
10:56 AM,57.9,39.0,49,29.99,10.0,SSE,10.4,-,N/A,,Clear,160,2012-10-08 17:56:00
11:56 AM,62.1,39.0,43,29.99,10.0,Variable,5.8,-,N/A,,Clear,0,2012-10-08 18:56:00
1:56 PM,68.0,37.9,33,29.97,10.0,Calm,Calm,-,N/A,,Clear,0,2012-10-08 20:56:00
2:56 PM,70.0,37.9,31,29.96,10.0,Calm,Calm,-,N/A,,Clear,0,2012-10-08 21:56:00
3:56 PM,72.0,39.0,30,29.95,10.0,NW,5.8,-,N/A,,Clear,320,2012-10-08 22:56:00
4:56 PM,71.1,39.0,31,29.95,10.0,West,8.1,-,N/A,,Clear,280,2012-10-08 23:56:00
7:56 PM,57.9,45.0,62,29.99,10.0,SSW,4.6,-,N/A,,Clear,200,2012-10-09 02:56:00
8:56 PM,55.9,46.0,69,30.00,10.0,Calm,Calm,-,N/A,,Clear,0,2012-10-09 03:56:00
9:56 PM,50.0,43.0,77,30.03,10.0,South,5.8,-,N/A,,Clear,180,2012-10-09 04:56:00
10:56 PM,46.9,42.1,83,30.04,10.0,Calm,Calm,-,N/A,,Clear,0,2012-10-09 05:56:00